AFR68GT LPFR-LFPG

Flight info

Callsign AFR68GT
Flight time 2h 15m
Altitude 36000
Route XAPAS DCT ELVAR DCT BARDI/N0447F380 N873 DELOG DCT YURZI DCT NTS UN741 KEPER
Aircraft A320/M-SDE2E3FGIJ1RWY/HB1

Departure

Time 2026-05-05 14:01
Airport Faro - Gago Coutinho International Airport (LPFR)

Arrival

Time 2026-05-05 16:16
Airport Charles de Gaulle International Airport (LFPG)
Time Latitude Longitude Altitude Speed Heading
2026-05-05 13:13 37.01870 -7.96504 20 ft 0 kts
2026-05-05 13:51 37.01868 -7.96505 20 ft 2 kts
2026-05-05 13:51 37.01852 -7.96512 20 ft 3 kts 54°
2026-05-05 13:52 37.01842 -7.96530 25 ft 3 kts 30°
2026-05-05 13:52 37.01828 -7.96536 21 ft 3 kts
2026-05-05 13:52 37.01809 -7.96540 21 ft 3 kts 12°
2026-05-05 13:52 37.01794 -7.96546 23 ft 3 kts 65°
2026-05-05 13:53 37.01793 -7.96566 22 ft 3 kts 100°
2026-05-05 13:53 37.01796 -7.96589 20 ft 1 kts 99°
2026-05-05 13:53 37.01796 -7.96590 20 ft 0 kts 99°
2026-05-05 13:57 37.01793 -7.96567 20 ft 5 kts 101°
2026-05-05 13:57 37.01774 -7.96531 21 ft 5 kts 138°
2026-05-05 13:57 37.01722 -7.96524 20 ft 9 kts 189°
2026-05-05 13:57 37.01662 -7.96536 20 ft 8 kts 183°
2026-05-05 13:58 37.01620 -7.96504 20 ft 8 kts 118°
2026-05-05 13:58 37.01603 -7.96418 20 ft 11 kts 99°
2026-05-05 13:58 37.01591 -7.96329 20 ft 11 kts 100°
2026-05-05 13:58 37.01573 -7.96210 20 ft 17 kts 100°
2026-05-05 13:59 37.01531 -7.95912 20 ft 16 kts 101°
2026-05-05 13:59 37.01467 -7.95836 20 ft 13 kts 181°
2026-05-05 14:00 37.01348 -7.95903 20 ft 7 kts 281°
2026-05-05 14:00 37.01350 -7.95911 20 ft 0 kts 280°
2026-05-05 14:01 37.01361 -7.95987 20 ft 37 kts 281°
2026-05-05 14:01 37.01451 -7.96610 22 ft 106 kts 280°
2026-05-05 14:01 37.01611 -7.97755 36 ft 157 kts 279°
2026-05-05 14:01 37.01803 -7.99082 669 ft 154 kts 283°
2026-05-05 14:02 37.01997 -8.00403 1353 ft 154 kts 283°
2026-05-05 14:02 37.02196 -8.01722 2015 ft 156 kts 284°
2026-05-05 14:02 37.02402 -8.03058 2647 ft 156 kts 285°
2026-05-05 14:02 37.02607 -8.04400 3226 ft 158 kts 284°
2026-05-05 14:03 37.02830 -8.05852 3530 ft 180 kts 285°
2026-05-05 14:03 37.03249 -8.07394 3852 ft 197 kts 300°
2026-05-05 14:03 37.04064 -8.08884 4155 ft 219 kts 315°
2026-05-05 14:03 37.05336 -8.10077 4570 ft 241 kts 334°
2026-05-05 14:04 37.06978 -8.10648 5289 ft 250 kts 355°
2026-05-05 14:04 37.08735 -8.10454 6077 ft 259 kts 15°
2026-05-05 14:04 37.10345 -8.09445 6882 ft 266 kts 32°
2026-05-05 14:04 37.11906 -8.08147 7672 ft 272 kts 30°
2026-05-05 14:05 37.13514 -8.06850 8463 ft 278 kts 30°
2026-05-05 14:05 37.15162 -8.05545 9279 ft 283 kts 29°
2026-05-05 14:05 37.16847 -8.04213 10065 ft 289 kts 29°
2026-05-05 14:05 37.18555 -8.02854 10797 ft 293 kts 29°
2026-05-05 14:06 37.20294 -8.01465 11420 ft 304 kts 29°
2026-05-05 14:06 37.22148 -7.99987 11647 ft 327 kts 30°
2026-05-05 14:06 37.24111 -7.98421 12167 ft 339 kts 29°
2026-05-05 14:06 37.26230 -7.97139 12843 ft 339 kts 13°
2026-05-05 14:07 37.28556 -7.96673 13545 ft 340 kts
2026-05-05 14:07 37.30931 -7.96547 14220 ft 344 kts 359°
2026-05-05 14:07 37.33335 -7.96429 14851 ft 348 kts 359°
2026-05-05 14:07 37.35764 -7.96307 15487 ft 351 kts 360°
2026-05-05 14:08 37.38222 -7.96177 16112 ft 355 kts 359°
2026-05-05 14:08 37.40706 -7.96002 16736 ft 360 kts
2026-05-05 14:08 37.43160 -7.95232 17347 ft 367 kts 14°
2026-05-05 14:08 37.45610 -7.94278 17967 ft 371 kts 14°
2026-05-05 14:09 37.48087 -7.93297 18539 ft 375 kts 14°
2026-05-05 14:09 37.50585 -7.92296 19053 ft 379 kts 14°
2026-05-05 14:09 37.53108 -7.91276 19584 ft 382 kts 14°
2026-05-05 14:09 37.55652 -7.90248 20099 ft 386 kts 14°
2026-05-05 14:10 37.58221 -7.89215 20631 ft 390 kts 14°
2026-05-05 14:10 37.60820 -7.88179 21147 ft 393 kts 14°
2026-05-05 14:10 37.63440 -7.87137 21675 ft 397 kts 14°
2026-05-05 14:10 37.66084 -7.86084 22189 ft 400 kts 13°
2026-05-05 14:11 37.68756 -7.85018 22707 ft 404 kts 13°
2026-05-05 14:11 37.71446 -7.83941 23241 ft 407 kts 13°
2026-05-05 14:11 37.74156 -7.82854 23720 ft 411 kts 13°
2026-05-05 14:11 37.76892 -7.81753 24128 ft 414 kts 13°
2026-05-05 14:12 37.79646 -7.80647 24519 ft 417 kts 13°
2026-05-05 14:12 37.82426 -7.79533 24906 ft 420 kts 13°
2026-05-05 14:12 37.85185 -7.78427 25281 ft 423 kts 12°
2026-05-05 14:12 37.88039 -7.77281 25661 ft 426 kts 12°
2026-05-05 14:13 37.90880 -7.76139 26019 ft 430 kts 12°
2026-05-05 14:13 37.93698 -7.75003 26399 ft 433 kts 12°
2026-05-05 14:13 37.96570 -7.73843 26782 ft 434 kts 12°
2026-05-05 14:13 37.99458 -7.72676 27161 ft 437 kts 11°
2026-05-05 14:14 38.02368 -7.71503 27495 ft 440 kts 11°
2026-05-05 14:14 38.05292 -7.70324 27840 ft 443 kts 11°
2026-05-05 14:14 38.08239 -7.69136 28171 ft 445 kts 11°
2026-05-05 14:14 38.11201 -7.67939 28493 ft 448 kts 11°
2026-05-05 14:15 38.14181 -7.66728 28805 ft 451 kts 11°
2026-05-05 14:15 38.17184 -7.65504 29102 ft 454 kts 11°
2026-05-05 14:15 38.20200 -7.64275 29391 ft 457 kts 11°
2026-05-05 14:15 38.23238 -7.63035 29701 ft 460 kts 11°
2026-05-05 14:16 38.26291 -7.61793 29993 ft 462 kts 10°
2026-05-05 14:16 38.29361 -7.60547 30244 ft 465 kts 10°
2026-05-05 14:16 38.32451 -7.59294 30457 ft 467 kts 10°
2026-05-05 14:16 38.35553 -7.58033 30683 ft 469 kts 10°
2026-05-05 14:17 38.38673 -7.56760 30919 ft 471 kts 10°
2026-05-05 14:17 38.41800 -7.55479 31186 ft 473 kts 10°
2026-05-05 14:17 38.44933 -7.54195 31498 ft 472 kts 10°
2026-05-05 14:17 38.48051 -7.52916 31851 ft 470 kts 10°
2026-05-05 14:18 38.51162 -7.51641 32178 ft 469 kts 10°
2026-05-05 14:18 38.54273 -7.50365 32505 ft 469 kts 10°
2026-05-05 14:18 38.57376 -7.49091 32817 ft 468 kts 10°
2026-05-05 14:18 38.60475 -7.47817 33131 ft 468 kts 10°
2026-05-05 14:19 38.63576 -7.46542 33440 ft 467 kts 10°
2026-05-05 14:19 38.66669 -7.45271 33783 ft 467 kts 10°
2026-05-05 14:19 38.69758 -7.43997 34106 ft 466 kts
2026-05-05 14:19 38.72837 -7.42726 34390 ft 465 kts 10°
2026-05-05 14:20 38.75913 -7.41457 34659 ft 464 kts 10°
2026-05-05 14:20 38.78982 -7.40189 34918 ft 463 kts 10°
2026-05-05 14:20 38.82052 -7.38924 35159 ft 463 kts 10°
2026-05-05 14:20 38.85114 -7.37665 35408 ft 462 kts 10°
2026-05-05 14:21 38.88131 -7.36422 35657 ft 461 kts 10°
2026-05-05 14:21 38.91223 -7.35142 35937 ft 461 kts 11°
2026-05-05 14:21 38.97252 -7.32629 36039 ft 456 kts 11°
2026-05-05 14:22 39.03272 -7.30124 36036 ft 454 kts 10°
2026-05-05 14:22 39.09286 -7.27628 36027 ft 454 kts 11°
2026-05-05 14:23 39.15294 -7.25123 36025 ft 453 kts 11°
2026-05-05 14:23 39.21281 -7.22584 36026 ft 455 kts 14°
2026-05-05 14:24 39.27031 -7.18979 36034 ft 461 kts 20°
2026-05-05 14:24 39.32737 -7.15202 36029 ft 461 kts 20°
2026-05-05 14:25 39.38445 -7.11410 36054 ft 461 kts 20°
2026-05-05 14:25 39.44144 -7.07619 36045 ft 460 kts 20°
2026-05-05 14:26 39.49834 -7.03837 36033 ft 460 kts 20°
2026-05-05 14:26 39.55524 -7.00049 36030 ft 460 kts 20°
2026-05-05 14:27 39.61209 -6.96253 36037 ft 459 kts 21°
2026-05-05 14:27 39.66882 -6.92463 36031 ft 458 kts 21°
2026-05-05 14:28 39.72546 -6.88666 36030 ft 458 kts 21°
2026-05-05 14:28 39.78163 -6.84878 36016 ft 458 kts 21°
2026-05-05 14:29 39.83815 -6.81074 36052 ft 456 kts 20°
2026-05-05 14:29 39.89427 -6.77292 36003 ft 453 kts 20°
2026-05-05 14:30 39.95020 -6.73520 36006 ft 453 kts 20°
2026-05-05 14:30 40.00613 -6.69732 36008 ft 453 kts 20°
2026-05-05 14:31 40.05264 -6.66581 36005 ft 453 kts 20°
2026-05-05 14:31 40.10856 -6.62787 36028 ft 452 kts 20°
2026-05-05 14:32 40.16471 -6.58969 36021 ft 452 kts 20°
2026-05-05 14:32 40.22009 -6.55194 36020 ft 452 kts 20°
2026-05-05 14:33 40.27579 -6.51391 36010 ft 451 kts 20°
2026-05-05 14:33 40.33130 -6.47587 36010 ft 448 kts 20°
2026-05-05 14:34 40.38659 -6.43800 35997 ft 449 kts 20°
2026-05-05 14:34 40.44194 -6.40004 35983 ft 449 kts 20°
2026-05-05 14:35 40.49740 -6.36193 35988 ft 450 kts 20°
2026-05-05 14:35 40.55288 -6.32369 35990 ft 451 kts 20°
2026-05-05 14:36 40.60838 -6.28527 35994 ft 451 kts 20°
2026-05-05 14:36 40.66396 -6.24693 35996 ft 451 kts 20°
2026-05-05 14:37 40.71954 -6.20861 35993 ft 451 kts 20°
2026-05-05 14:37 40.77507 -6.17014 36032 ft 450 kts 20°
2026-05-05 14:38 40.83048 -6.13171 36022 ft 449 kts 20°
2026-05-05 14:38 40.88573 -6.09324 36019 ft 449 kts 20°
2026-05-05 14:39 40.94103 -6.05467 36013 ft 449 kts 21°
2026-05-05 14:39 40.99632 -6.01604 36022 ft 450 kts 21°
2026-05-05 14:40 41.05165 -5.97741 36007 ft 450 kts 21°
2026-05-05 14:40 41.10698 -5.93870 36004 ft 450 kts 21°
2026-05-05 14:41 41.16191 -5.90016 36000 ft 449 kts 21°
2026-05-05 14:41 41.21715 -5.86132 36030 ft 449 kts 22°
2026-05-05 14:42 41.27240 -5.82232 36014 ft 450 kts 22°
2026-05-05 14:42 41.32768 -5.78324 36011 ft 450 kts 22°
2026-05-05 14:43 41.38295 -5.74419 36006 ft 450 kts 22°
2026-05-05 14:43 41.43825 -5.70510 36028 ft 450 kts 23°
2026-05-05 14:44 41.49355 -5.66586 36011 ft 450 kts 23°
2026-05-05 14:44 41.54953 -5.62890 36005 ft 446 kts 17°
2026-05-05 14:45 41.60680 -5.59678 35988 ft 447 kts 18°
2026-05-05 14:45 41.66407 -5.56439 36021 ft 447 kts 18°
2026-05-05 14:46 41.72132 -5.53203 36006 ft 446 kts 18°
2026-05-05 14:46 41.77851 -5.49968 36002 ft 446 kts 18°
2026-05-05 14:47 41.83569 -5.46730 36002 ft 446 kts 18°
2026-05-05 14:47 41.89282 -5.43479 36019 ft 446 kts 18°
2026-05-05 14:48 41.94995 -5.40215 36012 ft 446 kts 18°
2026-05-05 14:48 42.00708 -5.36959 36003 ft 446 kts 18°
2026-05-05 14:49 42.06417 -5.33700 35998 ft 445 kts 18°
2026-05-05 14:49 42.12128 -5.30433 36004 ft 446 kts 18°
2026-05-05 14:50 42.17845 -5.27150 35991 ft 447 kts 19°
2026-05-05 14:50 42.23577 -5.23853 35990 ft 448 kts 19°
2026-05-05 14:51 42.29318 -5.20550 36006 ft 449 kts 19°
2026-05-05 14:51 42.35055 -5.17237 35999 ft 449 kts 19°
2026-05-05 14:52 42.40793 -5.13905 36003 ft 449 kts 19°
2026-05-05 14:52 42.46534 -5.10574 36002 ft 449 kts 19°
2026-05-05 14:53 42.52272 -5.07248 36018 ft 448 kts 19°
2026-05-05 14:53 42.57996 -5.03921 36012 ft 448 kts 19°
2026-05-05 14:54 42.63717 -5.00581 36009 ft 447 kts 19°
2026-05-05 14:54 42.69432 -4.97238 36006 ft 447 kts 19°
2026-05-05 14:55 42.75142 -4.93895 36001 ft 447 kts 19°
2026-05-05 14:55 42.80821 -4.90567 35996 ft 448 kts 19°
2026-05-05 14:56 42.86553 -4.87205 35989 ft 449 kts 19°
2026-05-05 14:56 42.92290 -4.83825 36015 ft 450 kts 20°
2026-05-05 14:57 42.98033 -4.80431 36011 ft 450 kts 20°
2026-05-05 14:57 43.03773 -4.77037 36016 ft 449 kts 20°
2026-05-05 14:58 43.09509 -4.73631 36020 ft 449 kts 20°
2026-05-05 14:58 43.13267 -4.71401 36028 ft 449 kts 20°
2026-05-05 14:59 43.18995 -4.67992 36025 ft 448 kts 20°
2026-05-05 14:59 43.24714 -4.64582 36016 ft 448 kts 20°
2026-05-05 15:00 43.29465 -4.61748 36023 ft 448 kts 20°
2026-05-05 15:00 43.36114 -4.57777 36038 ft 448 kts 20°
2026-05-05 15:01 43.41840 -4.54342 36028 ft 449 kts 21°
2026-05-05 15:01 43.47576 -4.50896 36025 ft 450 kts 21°
2026-05-05 15:02 43.53314 -4.47434 36023 ft 450 kts 21°
2026-05-05 15:02 43.59046 -4.43964 36019 ft 450 kts 20°
2026-05-05 15:03 43.64784 -4.40492 36017 ft 450 kts 21°
2026-05-05 15:03 43.70520 -4.37022 36013 ft 450 kts 21°
2026-05-05 15:04 43.76252 -4.33544 36023 ft 450 kts 21°
2026-05-05 15:04 43.81977 -4.30058 36017 ft 449 kts 21°
2026-05-05 15:05 43.90553 -4.24835 36005 ft 449 kts 21°
2026-05-05 15:06 43.96270 -4.21346 36017 ft 449 kts 21°
2026-05-05 15:06 44.01986 -4.17838 36005 ft 449 kts 22°
2026-05-05 15:07 44.07700 -4.14316 36009 ft 449 kts 22°
2026-05-05 15:07 44.13412 -4.10793 36002 ft 449 kts 22°
2026-05-05 15:08 44.19124 -4.07270 36012 ft 448 kts 22°
2026-05-05 15:08 44.24826 -4.03748 36006 ft 448 kts 22°
2026-05-05 15:09 44.30522 -4.00219 35995 ft 448 kts 22°
2026-05-05 15:09 44.36066 -3.96250 36000 ft 449 kts 28°
2026-05-05 15:10 44.41493 -3.91953 35993 ft 448 kts 27°
2026-05-05 15:10 44.46918 -3.87658 35993 ft 448 kts 28°
2026-05-05 15:11 44.52337 -3.83365 35989 ft 447 kts 28°
2026-05-05 15:11 44.57752 -3.79051 35991 ft 448 kts 28°
2026-05-05 15:12 44.63131 -3.74755 35982 ft 448 kts 27°
2026-05-05 15:12 44.68552 -3.70418 35980 ft 448 kts 27°
2026-05-05 15:13 44.73970 -3.66076 35975 ft 448 kts 28°
2026-05-05 15:13 44.79393 -3.61721 35977 ft 449 kts 29°
2026-05-05 15:14 44.84817 -3.57368 35977 ft 449 kts 28°
2026-05-05 15:14 44.90239 -3.52995 35981 ft 449 kts 29°
2026-05-05 15:15 44.95657 -3.48613 35983 ft 449 kts 28°
2026-05-05 15:15 45.01078 -3.44225 35987 ft 449 kts 28°
2026-05-05 15:16 45.06496 -3.39818 35971 ft 450 kts 29°
2026-05-05 15:16 45.11919 -3.35405 35967 ft 450 kts 29°
2026-05-05 15:17 45.16472 -3.31708 35971 ft 450 kts 28°
2026-05-05 15:17 45.21900 -3.27292 35974 ft 449 kts 29°
2026-05-05 15:18 45.27312 -3.22852 35969 ft 449 kts 29°
2026-05-05 15:18 45.32680 -3.18448 35968 ft 449 kts 29°
2026-05-05 15:19 45.38080 -3.14013 35975 ft 448 kts 30°
2026-05-05 15:19 45.43458 -3.09566 35965 ft 447 kts 30°
2026-05-05 15:20 45.48834 -3.05116 35945 ft 447 kts 30°
2026-05-05 15:20 45.54226 -3.00667 35939 ft 448 kts 30°
2026-05-05 15:21 45.59613 -2.96206 35946 ft 447 kts 30°
2026-05-05 15:21 45.64992 -2.91735 35947 ft 447 kts 30°
2026-05-05 15:22 45.70361 -2.87269 35946 ft 446 kts 30°
2026-05-05 15:22 45.75720 -2.82781 35948 ft 446 kts 31°
2026-05-05 15:23 45.81072 -2.78291 35940 ft 445 kts 30°
2026-05-05 15:23 45.86422 -2.73809 35934 ft 445 kts 31°
2026-05-05 15:24 45.91770 -2.69319 35923 ft 446 kts 31°
2026-05-05 15:24 45.97126 -2.64804 35923 ft 446 kts 31°
2026-05-05 15:25 46.02484 -2.60279 35931 ft 447 kts 31°
2026-05-05 15:25 46.07840 -2.55739 35932 ft 447 kts 31°
2026-05-05 15:26 46.13190 -2.51191 35929 ft 447 kts 31°
2026-05-05 15:26 46.18540 -2.46641 35930 ft 445 kts 31°
2026-05-05 15:27 46.23867 -2.42088 35932 ft 444 kts 31°
2026-05-05 15:27 46.29177 -2.37524 35921 ft 444 kts 32°
2026-05-05 15:28 46.34490 -2.32935 35913 ft 445 kts 32°
2026-05-05 15:28 46.39809 -2.28339 35917 ft 445 kts 31°
2026-05-05 15:29 46.45129 -2.23742 35913 ft 445 kts 31°
2026-05-05 15:29 46.50415 -2.19158 35916 ft 445 kts 31°
2026-05-05 15:30 46.55731 -2.14541 35915 ft 445 kts 32°
2026-05-05 15:30 46.61047 -2.09906 35911 ft 445 kts 33°
2026-05-05 15:31 46.66355 -2.05260 35909 ft 445 kts 32°
2026-05-05 15:31 46.71663 -2.00609 35905 ft 445 kts 32°
2026-05-05 15:32 46.76983 -1.95948 35896 ft 446 kts 33°
2026-05-05 15:32 46.82297 -1.91273 35889 ft 446 kts 33°
2026-05-05 15:33 46.87619 -1.86579 35893 ft 447 kts 33°
2026-05-05 15:33 46.92939 -1.81889 35892 ft 447 kts 32°
2026-05-05 15:34 46.98254 -1.77190 35886 ft 446 kts 33°
2026-05-05 15:34 47.03520 -1.72519 35890 ft 445 kts 33°
2026-05-05 15:35 47.08810 -1.67801 35891 ft 445 kts 33°
2026-05-05 15:35 47.14067 -1.63002 35891 ft 444 kts 37°
2026-05-05 15:36 47.18404 -1.56673 35894 ft 439 kts 56°
2026-05-05 15:36 47.21999 -1.49421 35901 ft 438 kts 55°
2026-05-05 15:37 47.25614 -1.42202 35903 ft 438 kts 55°
2026-05-05 15:37 47.29220 -1.34975 35904 ft 438 kts 55°
2026-05-05 15:38 47.32811 -1.27741 35897 ft 437 kts 55°
2026-05-05 15:38 47.36391 -1.20491 35886 ft 437 kts 55°
2026-05-05 15:39 47.39943 -1.13286 35879 ft 437 kts 56°
2026-05-05 15:39 47.43531 -1.05969 35882 ft 437 kts 56°
2026-05-05 15:40 47.47092 -0.98706 35888 ft 436 kts 56°
2026-05-05 15:40 47.50643 -0.91439 35876 ft 436 kts 56°
2026-05-05 15:41 47.53906 -0.83989 35883 ft 433 kts 66°
2026-05-05 15:41 47.56033 -0.75666 35824 ft 436 kts 71°
2026-05-05 15:41 47.57067 -0.71425 35573 ft 438 kts 71°
2026-05-05 15:42 47.58101 -0.67193 35328 ft 436 kts 71°
2026-05-05 15:42 47.59131 -0.62989 35089 ft 433 kts 71°
2026-05-05 15:42 47.60155 -0.58815 34635 ft 429 kts 72°
2026-05-05 15:42 47.61167 -0.54669 34090 ft 427 kts 72°
2026-05-05 15:43 47.62169 -0.50546 33499 ft 423 kts 72°
2026-05-05 15:43 47.63154 -0.46468 32978 ft 417 kts 72°
2026-05-05 15:43 47.64120 -0.42442 32452 ft 411 kts 72°
2026-05-05 15:43 47.65070 -0.38471 31933 ft 406 kts 72°
2026-05-05 15:44 47.66005 -0.34547 31432 ft 401 kts 72°
2026-05-05 15:44 47.66927 -0.30679 30940 ft 396 kts 72°
2026-05-05 15:44 47.67841 -0.26849 30463 ft 391 kts 71°
2026-05-05 15:44 47.68745 -0.23070 29980 ft 387 kts 71°
2026-05-05 15:45 47.69637 -0.19328 29461 ft 382 kts 71°
2026-05-05 15:45 47.70510 -0.15645 29017 ft 375 kts 71°
2026-05-05 15:45 47.71369 -0.12011 28575 ft 370 kts 71°
2026-05-05 15:45 47.72212 -0.08436 28162 ft 364 kts 71°
2026-05-05 15:46 47.73044 -0.04913 27734 ft 359 kts 71°
2026-05-05 15:46 47.73866 -0.01432 27341 ft 355 kts 71°
2026-05-05 15:46 47.74677 0.02007 26914 ft 350 kts 71°
2026-05-05 15:46 47.75478 0.05411 26523 ft 348 kts 71°
2026-05-05 15:47 47.76273 0.08793 26130 ft 346 kts 71°
2026-05-05 15:47 47.76798 0.11024 25871 ft 345 kts 71°
2026-05-05 15:47 47.77846 0.15508 25320 ft 341 kts 71°
2026-05-05 15:47 47.78619 0.18826 24912 ft 338 kts 71°
2026-05-05 15:48 47.79392 0.22109 24506 ft 335 kts 69°
2026-05-05 15:48 47.80413 0.25212 24084 ft 333 kts 58°
2026-05-05 15:48 47.81787 0.27965 23744 ft 331 kts 48°
2026-05-05 15:48 47.83501 0.30357 23514 ft 345 kts 39°
2026-05-05 15:49 47.85465 0.32449 23213 ft 348 kts 36°
2026-05-05 15:49 47.87451 0.34526 22933 ft 349 kts 36°
2026-05-05 15:49 47.89437 0.36605 22664 ft 349 kts 36°
2026-05-05 15:49 47.91416 0.38678 22392 ft 348 kts 36°
2026-05-05 15:50 47.93396 0.40754 22118 ft 347 kts 37°
2026-05-05 15:50 47.95366 0.42818 21838 ft 346 kts 37°
2026-05-05 15:50 47.97347 0.44892 21575 ft 349 kts 37°
2026-05-05 15:50 47.99310 0.46954 21303 ft 350 kts 37°
2026-05-05 15:51 48.01302 0.49050 21026 ft 350 kts 36°
2026-05-05 15:51 48.03283 0.51133 20748 ft 346 kts 36°
2026-05-05 15:51 48.05245 0.53193 20478 ft 344 kts 36°
2026-05-05 15:51 48.07204 0.55252 20211 ft 344 kts 36°
2026-05-05 15:52 48.09154 0.57308 19940 ft 343 kts 36°
2026-05-05 15:52 48.11105 0.59369 19675 ft 343 kts 36°
2026-05-05 15:52 48.13062 0.61434 19398 ft 344 kts 37°
2026-05-05 15:52 48.15014 0.63499 19136 ft 343 kts 36°
2026-05-05 15:53 48.16961 0.65566 18864 ft 343 kts 36°
2026-05-05 15:53 48.18906 0.67629 18603 ft 342 kts 36°
2026-05-05 15:53 48.20850 0.69690 18311 ft 342 kts 36°
2026-05-05 15:53 48.22784 0.71746 18056 ft 341 kts 36°
2026-05-05 15:54 48.24701 0.73781 17851 ft 335 kts 36°
2026-05-05 15:54 48.26597 0.75792 17536 ft 332 kts 37°
2026-05-05 15:54 48.28467 0.77784 17259 ft 328 kts 37°
2026-05-05 15:54 48.30324 0.79761 17005 ft 326 kts 37°
2026-05-05 15:55 48.32143 0.81705 16764 ft 325 kts 36°
2026-05-05 15:55 48.33893 0.83830 16516 ft 323 kts 46°
2026-05-05 15:55 48.35311 0.86425 16253 ft 321 kts 58°
2026-05-05 15:55 48.36391 0.89366 15998 ft 322 kts 63°
2026-05-05 15:56 48.37422 0.92354 15752 ft 322 kts 63°
2026-05-05 15:56 48.38457 0.95338 15508 ft 321 kts 63°
2026-05-05 15:56 48.39491 0.98311 15258 ft 321 kts 63°
2026-05-05 15:56 48.40522 1.01281 15006 ft 320 kts 63°
2026-05-05 15:57 48.41548 1.04250 14743 ft 320 kts 63°
2026-05-05 15:57 48.42571 1.07216 14432 ft 319 kts 63°
2026-05-05 15:57 48.43591 1.10172 14145 ft 317 kts 63°
2026-05-05 15:57 48.44599 1.13090 13950 ft 311 kts 63°
2026-05-05 15:58 48.45594 1.15972 13598 ft 308 kts 63°
2026-05-05 15:58 48.46576 1.18825 13258 ft 305 kts 63°
2026-05-05 15:58 48.47545 1.21652 12932 ft 303 kts 63°
2026-05-05 15:58 48.48505 1.24466 12652 ft 301 kts 64°
2026-05-05 15:59 48.49452 1.27255 12369 ft 299 kts 63°
2026-05-05 15:59 48.50397 1.30030 12079 ft 296 kts 63°
2026-05-05 15:59 48.51332 1.32768 11807 ft 291 kts 63°
2026-05-05 15:59 48.52259 1.35469 11660 ft 290 kts 63°
2026-05-05 16:00 48.53192 1.38174 11515 ft 290 kts 63°
2026-05-05 16:00 48.54119 1.40875 11356 ft 289 kts 63°
2026-05-05 16:00 48.55041 1.43573 11202 ft 289 kts 63°
2026-05-05 16:00 48.55962 1.46271 11054 ft 289 kts 63°
2026-05-05 16:01 48.56967 1.48839 10910 ft 288 kts 52°
2026-05-05 16:01 48.58377 1.50990 10739 ft 289 kts 38°
2026-05-05 16:01 48.60101 1.52536 10503 ft 289 kts 26°
2026-05-05 16:01 48.61907 1.53858 10273 ft 288 kts 26°
2026-05-05 16:02 48.63708 1.55183 10054 ft 288 kts 26°
2026-05-05 16:02 48.65502 1.56509 9837 ft 286 kts 27°
2026-05-05 16:02 48.67288 1.57826 9609 ft 285 kts 27°
2026-05-05 16:02 48.69076 1.59137 9294 ft 285 kts 26°
2026-05-05 16:03 48.70854 1.60436 9086 ft 283 kts 30°
2026-05-05 16:03 48.72544 1.61886 8898 ft 278 kts 39°
2026-05-05 16:03 48.73827 1.64067 8775 ft 280 kts 64°
2026-05-05 16:03 48.74937 1.66563 8619 ft 292 kts 60°
2026-05-05 16:04 48.76071 1.69059 8493 ft 281 kts 54°
2026-05-05 16:04 48.77195 1.71444 8364 ft 275 kts 54°
2026-05-05 16:04 48.78312 1.73790 8129 ft 272 kts 54°
2026-05-05 16:04 48.79415 1.76116 7875 ft 272 kts 54°
2026-05-05 16:05 48.80513 1.78444 7625 ft 271 kts 54°
2026-05-05 16:05 48.81601 1.80764 7374 ft 269 kts 54°
2026-05-05 16:05 48.82683 1.83086 7135 ft 271 kts 54°
2026-05-05 16:05 48.83777 1.85436 6879 ft 271 kts 54°
2026-05-05 16:06 48.84851 1.87748 6633 ft 266 kts 54°
2026-05-05 16:06 48.85556 1.89268 6468 ft 266 kts 54°
2026-05-05 16:06 48.86977 1.92342 6139 ft 264 kts 54°
2026-05-05 16:06 48.87673 1.93848 5964 ft 262 kts 54°
2026-05-05 16:07 48.88717 1.96108 5649 ft 260 kts 54°
2026-05-05 16:07 48.90103 1.99111 5071 ft 257 kts 54°
2026-05-05 16:07 48.91111 2.01299 4999 ft 256 kts 54°
2026-05-05 16:07 48.91792 2.02777 5003 ft 247 kts 54°
2026-05-05 16:08 48.93024 2.05468 5006 ft 222 kts 54°
2026-05-05 16:08 48.93602 2.06731 5004 ft 210 kts 53°
2026-05-05 16:08 48.94400 2.08473 4998 ft 192 kts 53°
2026-05-05 16:08 48.95396 2.10642 5032 ft 188 kts 53°
2026-05-05 16:09 48.95902 2.11740 5014 ft 186 kts 53°
2026-05-05 16:09 48.96618 2.13352 4998 ft 184 kts 60°
2026-05-05 16:09 48.96990 2.15212 5002 ft 187 kts 81°
2026-05-05 16:09 48.97101 2.17178 5006 ft 183 kts 82°
2026-05-05 16:10 48.97205 2.19023 4995 ft 168 kts 82°
2026-05-05 16:10 48.97306 2.20788 4943 ft 168 kts 80°
2026-05-05 16:10 48.97408 2.22577 4777 ft 172 kts 82°
2026-05-05 16:10 48.97516 2.24428 4556 ft 179 kts 82°
2026-05-05 16:11 48.97623 2.26347 4292 ft 182 kts 83°
2026-05-05 16:11 48.97900 2.31306 3660 ft 139 kts 80°
2026-05-05 16:12 48.97983 2.32770 3480 ft 139 kts 80°
2026-05-05 16:12 48.98145 2.35669 3117 ft 137 kts 80°
2026-05-05 16:13 48.98382 2.39984 2559 ft 136 kts 79°
2026-05-05 16:13 48.98462 2.41416 2383 ft 135 kts 79°
2026-05-05 16:13 48.98540 2.42843 2174 ft 136 kts 79°
2026-05-05 16:14 48.98697 2.45703 1842 ft 136 kts 78°
2026-05-05 16:14 48.98853 2.48568 1452 ft 136 kts 78°
2026-05-05 16:15 48.99020 2.51483 1063 ft 139 kts 81°
2026-05-05 16:15 48.99178 2.54416 665 ft 138 kts 82°
2026-05-05 16:16 48.99330 2.57285 364 ft 133 kts 79°
2026-05-05 16:16 48.99448 2.59197 352 ft 42 kts 76°
2026-05-05 16:17 48.99616 2.59681 359 ft 18 kts 26°
2026-05-05 16:17 48.99732 2.59683 354 ft 15 kts 356°
2026-05-05 16:18 48.99969 2.59653 354 ft 18 kts 356°
2026-05-05 16:18 49.00073 2.59596 354 ft 15 kts 292°
2026-05-05 16:18 49.00063 2.59293 358 ft 13 kts 264°
2026-05-05 16:19 49.00055 2.59131 354 ft 18 kts 266°
2026-05-05 16:19 49.00043 2.58925 354 ft 20 kts 266°
2026-05-05 16:19 49.00202 2.58758 354 ft 17 kts 355°
2026-05-05 16:20 49.00465 2.58727 361 ft 23 kts 355°
2026-05-05 16:20 49.00787 2.58685 354 ft 20 kts 347°
2026-05-05 16:21 49.00832 2.58352 354 ft 15 kts 266°
2026-05-05 16:22 49.00655 2.58139 354 ft 10 kts 174°
2026-05-05 16:22 49.00571 2.58078 359 ft 8 kts 277°
2026-05-05 16:23 49.00581 2.58030 361 ft 0 kts 290°
2026-05-05 16:23 49.00582 2.58024 360 ft 0 kts 290°